Location: Stara Lesna
(49.1528°N, 20.2911°E)
Time: 13:37:28
(UTC+02:00)

Cosmos 1346 Rocket - Pass Details

Date: 21 September 2019
Orbit: 520 x 559 km, 81.2° (Epoch: 15 October)

Event Time Altitude Azimuth Distance (km) Brightness Sun altitude
Rises 05:23:31 0° 338° (NNW) 2,759 6.3 -10.5°
Reaches altitude 10° 05:25:56 10° 326° (NW) 1,859 5.3 -10.1°
Maximum altitude 05:29:22 26° 269° (W) 1,113 3.8 -9.5°
Drops below altitude 10° 05:32:47 10° 212° (SSW) 1,842 5.1 -9.0°
Sets 05:35:11 0° 199° (SSW) 2,728 6.1 -8.6°
